Location: Tel Aviv
(32.0670°N, 34.7670°E)
Time: 02:22:48
(UTC+02:00)

Transit 4A - Pass Details

Date: 07 December 2023
Orbit: 869 x 974 km, 66.8° (Epoch: 23 February)

Event Time Altitude Azimuth Distance (km) Brightness Sun altitude
Exits shadow 03:36:46 21° 30° (NNE) 1,940 9.7 -35.5°
Maximum altitude 03:38:29 23° 54° (NE) 1,808 9.7 -35.2°
Drops below altitude 10° 03:43:06 10° 106° (ESE) 2,548 11.0 -34.2°
Sets 03:46:04 0° 120° (ESE) 3,470 11.8 -33.6°
